| time (UTC) | temp F | wind direction | speed MPH | gust MPH | rain 1hr in | rain 24hr in | rain mn in | humidity % | barometer mb |
| 20260903044803 | 61 | 53 | 1.0 | 1.0 | 0.00 | 0.00 | 0.00 | 60 | 1004.8 |
| 20260903044304 | 61 | 53 | 1.0 | 1.0 | 0.00 | 0.00 | 0.00 | 61 | 1004.8 |
| 20260903043803 | 61 | 53 | 1.0 | 1.0 | 0.00 | 0.00 | 0.00 | 60 | 1004.7 |
| 20260903042804 | 61 | 53 | 1.0 | 1.0 | 0.00 | 0.00 | 0.00 | 60 | 1005.1 |
| 20260903042306 | 61 | 53 | 1.0 | 1.0 | 0.00 | 0.00 | 0.00 | 61 | 1005.1 |
| 20260903041804 | 61 | 53 | 1.0 | 1.0 | 0.00 | 0.00 | 0.00 | 60 | 1005.2 |
| 20260903041304 | 61 | 53 | 1.0 | 1.0 | 0.00 | 0.00 | 0.00 | 60 | 1005.1 |
| 20260903040804 | 61 | 53 | 1.0 | 1.0 | 0.00 | 0.00 | 0.00 | 60 | 1005.2 |
| 20260903040304 | 61 | 53 | 1.0 | 1.0 | 0.00 | 0.00 | 0.00 | 60 | 1005.3 |
| 20260903034304 | 62 | 53 | 1.0 | 1.0 | 0.00 | 0.00 | 0.00 | 58 | 1005.7 |
| 20260903033804 | 62 | 53 | 1.0 | 1.0 | 0.00 | 0.00 | 0.00 | 58 | 1005.8 |
| 20260903033303 | 62 | 53 | 1.0 | 1.0 | 0.00 | 0.00 | 0.00 | 58 | 1006.1 |
| 20260903032804 | 63 | 53 | 1.0 | 1.0 | 0.00 | 0.00 | 0.00 | 58 | 1006.2 |
| 20260903032305 | 63 | 53 | 1.0 | 1.0 | 0.00 | 0.00 | 0.00 | 58 | 1006.3 |
| 20260903031804 | 63 | 53 | 1.0 | 1.0 | 0.00 | 0.00 | 0.00 | 57 | 1006.3 |
| 20260903031304 | 63 | 53 | 1.0 | 1.0 | 0.00 | 0.00 | 0.00 | 56 | 1006.3 |
| 20260903030803 | 64 | 53 | 1.0 | 1.0 | 0.00 | 0.00 | 0.00 | 56 | 1006.3 |
| 20260903030304 | 64 | 53 | 1.0 | 1.0 | 0.00 | 0.00 | 0.00 | 55 | 1006.4 |
| 20260903025804 | 64 | 53 | 1.0 | 1.0 | 0.00 | 0.00 | 0.00 | 55 | 1006.3 |
| 20260903025306 | 65 | 53 | 1.0 | 1.0 | 0.00 | 0.00 | 0.00 | 54 | 1006.3 |
| 20260903024804 | 65 | 53 | 1.0 | 1.0 | 0.00 | 0.00 | 0.00 | 54 | 1006.5 |
| 20260903024304 | 65 | 53 | 1.0 | 1.0 | 0.00 | 0.00 | 0.00 | 54 | 1006.2 |
| 20260903023804 | 66 | 53 | 1.0 | 1.0 | 0.00 | 0.00 | 0.00 | 53 | 1006.5 |
| 20260903023304 | 66 | 53 | 1.0 | 1.0 | 0.00 | 0.00 | 0.00 | 53 | 1006.4 |
| 20260903022803 | 66 | 53 | 1.0 | 1.0 | 0.00 | 0.00 | 0.00 | 53 | 1006.4 |
| 20260903022306 | 66 | 53 | 1.0 | 1.0 | 0.00 | 0.00 | 0.00 | 52 | 1006.5 |
| 20260903021804 | 67 | 53 | 1.0 | 1.0 | 0.00 | 0.00 | 0.00 | 51 | 1006.4 |
| 20260903021303 | 67 | 53 | 1.0 | 1.0 | 0.00 | 0.00 | 0.00 | 51 | 1006.5 |
| 20260903020804 | 67 | 53 | 1.0 | 1.0 | 0.00 | 0.00 | 0.00 | 50 | 1006.5 |
| 20260903020304 | 68 | 53 | 1.0 | 1.0 | 0.00 | 0.00 | 0.00 | 47 | 1006.5 |
| 20260903015804 | 68 | 53 | 1.0 | 1.0 | 0.00 | 0.00 | 0.00 | 46 | 1006.3 |
| 20260903015306 | 68 | 53 | 1.0 | 1.0 | 0.00 | 0.00 | 0.00 | 46 | 1006.4 |
| 20260903014804 | 69 | 53 | 1.0 | 1.0 | 0.00 | 0.00 | 0.00 | 46 | 1006.3 |
| 20260903014304 | 69 | 53 | 1.0 | 1.0 | 0.00 | 0.00 | 0.00 | 45 | 1006.4 |
| 20260903013804 | 69 | 53 | 1.0 | 1.0 | 0.00 | 0.00 | 0.00 | 44 | 1006.3 |
| 20260903013303 | 69 | 53 | 1.0 | 1.0 | 0.00 | 0.00 | 0.00 | 44 | 1006.3 |
| 20260903012804 | 70 | 53 | 1.0 | 1.0 | 0.00 | 0.00 | 0.00 | 43 | 1006.2 |
| 20260903012306 | 70 | 53 | 1.0 | 1.0 | 0.00 | 0.00 | 0.00 | 43 | 1006.4 |
| 20260903011804 | 70 | 53 | 1.0 | 1.0 | 0.00 | 0.00 | 0.00 | 43 | 1006.1 |
| 20260903011304 | 70 | 53 | 1.0 | 1.0 | 0.00 | 0.00 | 0.00 | 43 | 1006.2 |
| 20260903010803 | 70 | 53 | 1.0 | 1.0 | 0.00 | 0.00 | 0.00 | 42 | 1006.3 |
| 20260903010304 | 70 | 53 | 1.0 | 1.0 | 0.00 | 0.00 | 0.00 | 42 | 1006.0 |
| 20260903005306 | 71 | 53 | 1.0 | 1.0 | 0.00 | 0.00 | 0.00 | 41 | 1006.3 |
| 20260903004804 | 71 | 53 | 1.0 | 1.0 | 0.00 | 0.00 | 0.00 | 40 | 1006.0 |
| 20260903004305 | 71 | 53 | 1.0 | 1.0 | 0.00 | 0.00 | 0.00 | 40 | 1006.1 |
| 20260903003803 | 71 | 53 | 1.0 | 1.0 | 0.00 | 0.00 | 0.00 | 39 | 1006.2 |
| 20260903003304 | 71 | 53 | 1.0 | 1.0 | 0.00 | 0.00 | 0.00 | 39 | 1006.2 |
| 20260903002804 | 72 | 53 | 1.0 | 1.0 | 0.00 | 0.00 | 0.00 | 38 | 1006.2 |
| 20260903002306 | 72 | 53 | 1.0 | 1.0 | 0.00 | 0.00 | 0.00 | 38 | 1006.1 |
| 20260903001804 | 72 | 53 | 1.0 | 1.0 | 0.00 | 0.00 | 0.00 | 38 | 1006.2 |
| 20260903001304 | 73 | 53 | 1.0 | 1.0 | 0.00 | 0.00 | 0.00 | 38 | 1006.1 |
| 20260903000803 | 73 | 53 | 1.0 | 1.0 | 0.00 | 0.00 | 0.00 | 37 | 1006.2 |
| 20260903000303 | 73 | 53 | 1.0 | 1.0 | 0.00 | 0.00 | 0.00 | 37 | 1006.3 |
| 20260902235804 | 73 | 53 | 1.0 | 1.0 | 0.00 | 0.00 | 0.00 | 38 | 1006.2 |
| 20260902235305 | 73 | 53 | 1.0 | 1.0 | 0.00 | 0.00 | 0.00 | 37 | 1006.1 |
| 20260902234803 | 73 | 53 | 1.0 | 1.0 | 0.00 | 0.00 | 0.00 | 38 | 1006.2 |
| 20260902234304 | 73 | 53 | 1.0 | 1.0 | 0.00 | 0.00 | 0.00 | 38 | 1006.4 |
| 20260902233804 | 73 | 53 | 1.0 | 1.0 | 0.00 | 0.00 | 0.00 | 37 | 1006.3 |
| 20260902233303 | 73 | 53 | 1.0 | 1.0 | 0.00 | 0.00 | 0.00 | 37 | 1006.4 |
| 20260902232804 | 73 | 53 | 1.0 | 1.0 | 0.00 | 0.00 | 0.00 | 37 | 1006.5 |
| 20260902231803 | 73 | 53 | 1.0 | 1.0 | 0.00 | 0.00 | 0.00 | 37 | 1006.3 |
| 20260902231304 | 73 | 53 | 1.0 | 1.0 | 0.00 | 0.00 | 0.00 | 39 | 1006.4 |
| 20260902230803 | 73 | 53 | 1.0 | 1.0 | 0.00 | 0.00 | 0.00 | 39 | 1006.3 |
| 20260902230304 | 73 | 53 | 1.0 | 1.0 | 0.00 | 0.00 | 0.00 | 39 | 1006.4 |
| 20260902225306 | 72 | 53 | 1.0 | 1.0 | 0.00 | 0.00 | 0.00 | 40 | 1006.8 |
| 20260902224304 | 72 | 53 | 1.0 | 1.0 | 0.00 | 0.00 | 0.00 | 42 | 1007.0 |
| 20260902223804 | 72 | 53 | 1.0 | 1.0 | 0.00 | 0.00 | 0.00 | 42 | 1006.9 |
| 20260902222804 | 72 | 53 | 1.0 | 1.0 | 0.00 | 0.00 | 0.00 | 41 | 1006.7 |
| 20260902222306 | 72 | 53 | 1.0 | 1.0 | 0.00 | 0.00 | 0.00 | 41 | 1007.1 |
| 20260902221804 | 72 | 53 | 1.0 | 1.0 | 0.00 | 0.00 | 0.00 | 41 | 1007.2 |
| 20260902221303 | 72 | 53 | 1.0 | 1.0 | 0.00 | 0.00 | 0.00 | 40 | 1007.3 |
| 20260902220304 | 73 | 53 | 1.0 | 1.0 | 0.00 | 0.00 | 0.00 | 39 | 1007.4 |
| 20260902215804 | 73 | 53 | 1.0 | 1.0 | 0.00 | 0.00 | 0.00 | 40 | 1007.4 |
| 20260902215306 | 72 | 53 | 1.0 | 1.0 | 0.00 | 0.00 | 0.00 | 40 | 1007.5 |
| 20260902214804 | 72 | 53 | 1.0 | 1.0 | 0.00 | 0.00 | 0.00 | 39 | 1007.7 |
| 20260902214303 | 73 | 53 | 1.0 | 1.0 | 0.00 | 0.00 | 0.00 | 39 | 1007.7 |
| 20260902213304 | 73 | 53 | 1.0 | 1.0 | 0.00 | 0.00 | 0.00 | 37 | 1007.8 |
| 20260902212804 | 73 | 53 | 1.0 | 1.0 | 0.00 | 0.00 | 0.00 | 37 | 1007.5 |
| 20260902212306 | 73 | 53 | 1.0 | 1.0 | 0.00 | 0.00 | 0.00 | 37 | 1007.7 |
| 20260902211804 | 73 | 53 | 1.0 | 1.0 | 0.00 | 0.00 | 0.00 | 38 | 1007.7 |
| 20260902211304 | 73 | 53 | 1.0 | 1.0 | 0.00 | 0.00 | 0.00 | 38 | 1007.7 |
| 20260902210804 | 73 | 53 | 1.0 | 1.0 | 0.00 | 0.00 | 0.00 | 39 | 1007.8 |
| 20260902210303 | 72 | 53 | 1.0 | 1.0 | 0.00 | 0.00 | 0.00 | 38 | 1007.8 |
| 20260902205804 | 72 | 53 | 1.0 | 1.0 | 0.00 | 0.00 | 0.00 | 41 | 1007.9 |
| 20260902205306 | 72 | 53 | 1.0 | 1.0 | 0.00 | 0.00 | 0.00 | 39 | 1007.9 |
| 20260902204804 | 72 | 53 | 1.0 | 1.0 | 0.00 | 0.00 | 0.00 | 39 | 1008.0 |
| 20260902204304 | 72 | 53 | 1.0 | 1.0 | 0.00 | 0.00 | 0.00 | 39 | 1007.9 |
| 20260902203804 | 73 | 53 | 1.0 | 1.0 | 0.00 | 0.00 | 0.00 | 39 | 1008.2 |
| 20260902203303 | 73 | 53 | 1.0 | 1.0 | 0.00 | 0.00 | 0.00 | 40 | 1008.3 |
| 20260902202804 | 73 | 53 | 1.0 | 1.0 | 0.00 | 0.00 | 0.00 | 38 | 1008.1 |
| 20260902202306 | 73 | 53 | 1.0 | 1.0 | 0.00 | 0.00 | 0.00 | 41 | 1008.0 |
| 20260902201804 | 73 | 53 | 1.0 | 1.0 | 0.00 | 0.00 | 0.00 | 39 | 1008.1 |
| 20260902201304 | 73 | 53 | 1.0 | 1.0 | 0.00 | 0.00 | 0.00 | 41 | 1008.1 |
| 20260902200804 | 73 | 53 | 1.0 | 1.0 | 0.00 | 0.00 | 0.00 | 43 | 1008.1 |
| 20260902200303 | 73 | 53 | 1.0 | 1.0 | 0.00 | 0.00 | 0.00 | 44 | 1008.2 |
| 20260902195804 | 73 | 53 | 1.0 | 1.0 | 0.00 | 0.00 | 0.00 | 44 | 1008.2 |
| 20260902195306 | 72 | 53 | 1.0 | 1.0 | 0.00 | 0.00 | 0.00 | 43 | 1008.1 |
| 20260902194803 | 72 | 53 | 1.0 | 1.0 | 0.00 | 0.00 | 0.00 | 41 | 1008.3 |
| 20260902194304 | 72 | 53 | 1.0 | 1.0 | 0.00 | 0.00 | 0.00 | 42 | 1008.1 |
| 20260902193804 | 72 | 53 | 1.0 | 1.0 | 0.00 | 0.00 | 0.00 | 43 | 1008.3 |
| 20260902193303 | 72 | 53 | 1.0 | 1.0 | 0.00 | 0.00 | 0.00 | 45 | 1008.5 |
| 20260902192804 | 71 | 53 | 1.0 | 1.0 | 0.00 | 0.00 | 0.00 | 44 | 1008.5 |
| 20260902192306 | 71 | 53 | 1.0 | 1.0 | 0.00 | 0.00 | 0.00 | 45 | 1008.7 |
| 20260902191804 | 71 | 53 | 1.0 | 1.0 | 0.00 | 0.00 | 0.00 | 44 | 1008.8 |
| 20260902191304 | 70 | 53 | 1.0 | 1.0 | 0.00 | 0.00 | 0.00 | 46 | 1008.6 |
| 20260902190804 | 70 | 53 | 1.0 | 1.0 | 0.00 | 0.00 | 0.00 | 47 | 1008.7 |
| 20260902190304 | 69 | 53 | 1.0 | 1.0 | 0.00 | 0.00 | 0.00 | 49 | 1009.0 |
| 20260902185306 | 68 | 53 | 1.0 | 1.0 | 0.00 | 0.00 | 0.00 | 46 | 1009.0 |
| 20260902184804 | 68 | 53 | 1.0 | 1.0 | 0.00 | 0.00 | 0.00 | 46 | 1008.9 |
| 20260902184304 | 68 | 53 | 1.0 | 1.0 | 0.00 | 0.00 | 0.00 | 46 | 1008.7 |
| 20260902183804 | 67 | 53 | 1.0 | 1.0 | 0.00 | 0.00 | 0.00 | 49 | 1008.9 |
| 20260902183304 | 67 | 53 | 1.0 | 1.0 | 0.00 | 0.00 | 0.00 | 49 | 1008.8 |
| 20260902182803 | 66 | 53 | 1.0 | 1.0 | 0.00 | 0.00 | 0.00 | 53 | 1008.9 |
| 20260902182306 | 66 | 53 | 1.0 | 1.0 | 0.00 | 0.00 | 0.00 | 52 | 1008.9 |
| 20260902181804 | 66 | 53 | 1.0 | 1.0 | 0.00 | 0.00 | 0.00 | 52 | 1009.0 |
| 20260902181304 | 65 | 53 | 1.0 | 1.0 | 0.00 | 0.00 | 0.00 | 53 | 1008.9 |
| 20260902180804 | 65 | 53 | 1.0 | 1.0 | 0.00 | 0.00 | 0.00 | 52 | 1009.0 |
| 20260902180304 | 65 | 53 | 1.0 | 1.0 | 0.00 | 0.00 | 0.00 | 54 | 1009.1 |
| 20260902175804 | 65 | 53 | 1.0 | 1.0 | 0.00 | 0.00 | 0.00 | 54 | 1009.0 |
| 20260902175307 | 65 | 53 | 1.0 | 1.0 | 0.00 | 0.00 | 0.00 | 54 | 1008.9 |
| 20260902174304 | 65 | 53 | 1.0 | 1.0 | 0.00 | 0.00 | 0.00 | 54 | 1009.1 |
| 20260902173804 | 64 | 53 | 1.0 | 1.0 | 0.00 | 0.00 | 0.00 | 56 | 1009.3 |
| 20260902173304 | 64 | 53 | 1.0 | 1.0 | 0.00 | 0.00 | 0.00 | 58 | 1009.1 |
| 20260902172804 | 64 | 53 | 1.0 | 1.0 | 0.00 | 0.00 | 0.00 | 58 | 1009.1 |
| 20260902172308 | 64 | 53 | 1.0 | 1.0 | 0.00 | 0.00 | 0.00 | 58 | 1009.2 |
| 20260902171804 | 64 | 53 | 1.0 | 1.0 | 0.00 | 0.00 | 0.00 | 58 | 1009.1 |
| 20260902170804 | 64 | 53 | 1.0 | 1.0 | 0.00 | 0.00 | 0.00 | 56 | 1008.8 |
| 20260902170304 | 64 | 53 | 1.0 | 1.0 | 0.00 | 0.00 | 0.00 | 55 | 1008.8 |
| 20260902165804 | 64 | 53 | 1.0 | 1.0 | 0.00 | 0.00 | 0.00 | 56 | 1009.1 |
| 20260902165308 | 64 | 53 | 1.0 | 1.0 | 0.00 | 0.00 | 0.00 | 57 | 1009.0 |
| 20260902164304 | 64 | 53 | 1.0 | 1.0 | 0.00 | 0.00 | 0.00 | 54 | 1009.2 |
| 20260902163804 | 64 | 53 | 1.0 | 1.0 | 0.00 | 0.00 | 0.00 | 55 | 1009.0 |
| 20260902163304 | 64 | 53 | 1.0 | 1.0 | 0.00 | 0.00 | 0.00 | 54 | 1008.9 |
| 20260902162803 | 64 | 53 | 1.0 | 1.0 | 0.00 | 0.00 | 0.00 | 55 | 1008.5 |
| 20260902161804 | 63 | 53 | 1.0 | 1.0 | 0.00 | 0.00 | 0.00 | 56 | 1008.2 |
| 20260902161304 | 63 | 53 | 1.0 | 1.0 | 0.00 | 0.00 | 0.00 | 57 | 1008.4 |
| 20260902155804 | 63 | 53 | 1.0 | 1.0 | 0.00 | 0.00 | 0.00 | 57 | 1008.2 |
| 20260902155306 | 62 | 53 | 1.0 | 1.0 | 0.00 | 0.00 | 0.00 | 59 | 1008.3 |
| 20260902154304 | 62 | 53 | 1.0 | 1.0 | 0.00 | 0.00 | 0.00 | 59 | 1008.4 |
| 20260902153804 | 62 | 53 | 1.0 | 1.0 | 0.00 | 0.00 | 0.00 | 60 | 1008.4 |
| 20260902153303 | 61 | 53 | 1.0 | 1.0 | 0.00 | 0.00 | 0.00 | 59 | 1008.4 |
| 20260902152804 | 61 | 53 | 1.0 | 1.0 | 0.00 | 0.00 | 0.00 | 62 | 1008.6 |
| 20260902152307 | 60 | 53 | 1.0 | 1.0 | 0.00 | 0.00 | 0.00 | 62 | 1008.6 |
| 20260902151804 | 60 | 53 | 1.0 | 1.0 | 0.00 | 0.00 | 0.00 | 64 | 1008.8 |
| 20260902150804 | 60 | 53 | 1.0 | 1.0 | 0.00 | 0.00 | 0.00 | 66 | 1008.9 |
| 20260902150304 | 59 | 53 | 1.0 | 1.0 | 0.00 | 0.00 | 0.00 | 66 | 1008.8 |
| 20260902145803 | 59 | 53 | 1.0 | 1.0 | 0.00 | 0.00 | 0.00 | 66 | 1009.0 |
| 20260902145306 | 59 | 53 | 1.0 | 1.0 | 0.00 | 0.00 | 0.00 | 66 | 1009.0 |
| 20260902144804 | 59 | 53 | 1.0 | 1.0 | 0.00 | 0.00 | 0.00 | 65 | 1009.0 |
| 20260902144304 | 59 | 53 | 1.0 | 1.0 | 0.00 | 0.00 | 0.00 | 64 | 1009.0 |
| 20260902143803 | 59 | 53 | 1.0 | 1.0 | 0.00 | 0.00 | 0.00 | 64 | 1008.7 |
| 20260902143304 | 59 | 53 | 1.0 | 1.0 | 0.00 | 0.00 | 0.00 | 64 | 1008.9 |
| 20260902142803 | 59 | 53 | 1.0 | 1.0 | 0.00 | 0.00 | 0.00 | 65 | 1008.9 |
| 20260902142306 | 59 | 53 | 1.0 | 1.0 | 0.00 | 0.00 | 0.00 | 65 | 1008.8 |
| 20260902141804 | 59 | 53 | 1.0 | 1.0 | 0.00 | 0.00 | 0.00 | 65 | 1008.9 |
| 20260902141304 | 58 | 53 | 1.0 | 1.0 | 0.00 | 0.00 | 0.00 | 65 | 1008.7 |
| 20260902140803 | 58 | 53 | 1.0 | 1.0 | 0.00 | 0.00 | 0.00 | 65 | 1008.7 |
| 20260902140304 | 58 | 53 | 1.0 | 1.0 | 0.00 | 0.00 | 0.00 | 64 | 1008.8 |
| 20260902135804 | 58 | 53 | 1.0 | 1.0 | 0.00 | 0.00 | 0.00 | 64 | 1008.7 |
| 20260902135306 | 58 | 53 | 1.0 | 1.0 | 0.00 | 0.00 | 0.00 | 64 | 1008.5 |
| 20260902134804 | 58 | 53 | 1.0 | 1.0 | 0.00 | 0.00 | 0.00 | 63 | 1008.5 |
| 20260902134304 | 58 | 53 | 1.0 | 1.0 | 0.00 | 0.00 | 0.00 | 63 | 1008.5 |
| 20260902133803 | 58 | 53 | 1.0 | 1.0 | 0.00 | 0.00 | 0.00 | 63 | 1008.5 |
| 20260902133304 | 58 | 53 | 1.0 | 1.0 | 0.00 | 0.00 | 0.00 | 63 | 1008.8 |
| 20260902132804 | 58 | 53 | 1.0 | 1.0 | 0.00 | 0.00 | 0.00 | 63 | 1008.4 |
| 20260902131304 | 58 | 53 | 1.0 | 1.0 | 0.00 | 0.00 | 0.00 | 63 | 1008.5 |
| 20260902130804 | 57 | 53 | 1.0 | 1.0 | 0.00 | 0.00 | 0.00 | 64 | 1008.4 |
| 20260902130304 | 57 | 53 | 1.0 | 1.0 | 0.00 | 0.00 | 0.00 | 65 | 1008.3 |
| 20260902125803 | 57 | 53 | 1.0 | 1.0 | 0.00 | 0.00 | 0.00 | 64 | 1008.3 |
| 20260902125306 | 57 | 53 | 1.0 | 1.0 | 0.00 | 0.00 | 0.00 | 64 | 1008.3 |
| 20260902124804 | 57 | 53 | 1.0 | 1.0 | 0.00 | 0.00 | 0.00 | 64 | 1008.3 |
| 20260902124304 | 57 | 53 | 1.0 | 1.0 | 0.00 | 0.00 | 0.00 | 64 | 1008.1 |
| 20260902123804 | 57 | 53 | 1.0 | 1.0 | 0.00 | 0.00 | 0.00 | 63 | 1008.2 |
| 20260902122804 | 57 | 53 | 1.0 | 1.0 | 0.00 | 0.00 | 0.00 | 64 | 1008.0 |
| 20260902122305 | 57 | 53 | 1.0 | 1.0 | 0.00 | 0.00 | 0.00 | 64 | 1008.1 |
| 20260902121803 | 57 | 53 | 1.0 | 1.0 | 0.00 | 0.00 | 0.00 | 64 | 1008.2 |
| 20260902120804 | 57 | 53 | 1.0 | 1.0 | 0.00 | 0.00 | 0.00 | 66 | 1008.3 |
| 20260902120303 | 56 | 53 | 1.0 | 1.0 | 0.00 | 0.00 | 0.00 | 66 | 1008.4 |
| 20260902115803 | 56 | 53 | 1.0 | 1.0 | 0.00 | 0.00 | 0.00 | 66 | 1008.6 |
| 20260902115307 | 56 | 53 | 1.0 | 1.0 | 0.00 | 0.00 | 0.00 | 66 | 1008.6 |
| 20260902114804 | 56 | 53 | 1.0 | 1.0 | 0.00 | 0.00 | 0.00 | 65 | 1008.5 |
| 20260902114303 | 56 | 53 | 1.0 | 1.0 | 0.00 | 0.00 | 0.00 | 65 | 1008.6 |
| 20260902113804 | 56 | 53 | 1.0 | 1.0 | 0.00 | 0.00 | 0.00 | 66 | 1008.5 |
| 20260902113304 | 56 | 53 | 1.0 | 1.0 | 0.00 | 0.00 | 0.00 | 66 | 1008.5 |
| 20260902112803 | 56 | 53 | 1.0 | 1.0 | 0.00 | 0.00 | 0.00 | 66 | 1008.4 |
| 20260902112305 | 56 | 53 | 1.0 | 1.0 | 0.00 | 0.00 | 0.00 | 65 | 1008.7 |
| 20260902111803 | 56 | 53 | 1.0 | 1.0 | 0.00 | 0.00 | 0.00 | 65 | 1008.4 |
| 20260902111304 | 56 | 53 | 1.0 | 1.0 | 0.00 | 0.00 | 0.00 | 65 | 1008.5 |
| 20260902110804 | 56 | 53 | 1.0 | 1.0 | 0.00 | 0.00 | 0.00 | 66 | 1008.5 |
| 20260902110303 | 56 | 53 | 1.0 | 1.0 | 0.00 | 0.00 | 0.00 | 65 | 1008.6 |
| 20260902105804 | 56 | 53 | 1.0 | 1.0 | 0.00 | 0.00 | 0.00 | 65 | 1008.4 |
| 20260902105306 | 56 | 53 | 1.0 | 1.0 | 0.00 | 0.00 | 0.00 | 66 | 1008.5 |
| 20260902104804 | 56 | 53 | 1.0 | 1.0 | 0.00 | 0.00 | 0.00 | 66 | 1008.4 |
| 20260902104304 | 56 | 53 | 1.0 | 1.0 | 0.00 | 0.00 | 0.00 | 65 | 1008.5 |
| 20260902103803 | 56 | 53 | 1.0 | 1.0 | 0.00 | 0.00 | 0.00 | 65 | 1008.7 |
| 20260902103304 | 56 | 53 | 1.0 | 1.0 | 0.00 | 0.00 | 0.00 | 65 | 1008.4 |
| 20260902102307 | 56 | 53 | 1.0 | 1.0 | 0.00 | 0.00 | 0.00 | 64 | 1008.5 |
| 20260902101804 | 56 | 53 | 1.0 | 1.0 | 0.00 | 0.00 | 0.00 | 64 | 1008.6 |
| 20260902101303 | 56 | 53 | 1.0 | 1.0 | 0.00 | 0.00 | 0.00 | 63 | 1008.5 |
| 20260902100804 | 56 | 53 | 1.0 | 1.0 | 0.00 | 0.00 | 0.00 | 63 | 1008.3 |
| 20260902095804 | 57 | 53 | 1.0 | 1.0 | 0.00 | 0.00 | 0.00 | 64 | 1008.6 |
| 20260902094803 | 57 | 53 | 1.0 | 1.0 | 0.00 | 0.00 | 0.00 | 62 | 1008.7 |
| 20260902094304 | 57 | 53 | 1.0 | 1.0 | 0.00 | 0.00 | 0.00 | 62 | 1008.7 |
| 20260902093803 | 57 | 53 | 1.0 | 1.0 | 0.00 | 0.00 | 0.00 | 63 | 1008.7 |
| 20260902092804 | 57 | 53 | 1.0 | 1.0 | 0.00 | 0.00 | 0.00 | 62 | 1008.8 |
| 20260902092305 | 57 | 53 | 1.0 | 1.0 | 0.00 | 0.00 | 0.00 | 62 | 1008.7 |
| 20260902091804 | 57 | 53 | 1.0 | 1.0 | 0.00 | 0.00 | 0.00 | 63 | 1008.8 |
| 20260902091304 | 57 | 53 | 1.0 | 1.0 | 0.00 | 0.00 | 0.00 | 63 | 1008.6 |
| 20260902090804 | 57 | 53 | 1.0 | 1.0 | 0.00 | 0.00 | 0.00 | 63 | 1008.4 |
| 20260902090304 | 57 | 53 | 1.0 | 1.0 | 0.00 | 0.00 | 0.00 | 63 | 1008.5 |
| 20260902084804 | 56 | 53 | 1.0 | 1.0 | 0.00 | 0.00 | 0.00 | 64 | 1008.6 |
| 20260902084304 | 56 | 53 | 1.0 | 1.0 | 0.00 | 0.00 | 0.00 | 63 | 1008.6 |
| 20260902083804 | 56 | 53 | 1.0 | 1.0 | 0.00 | 0.00 | 0.00 | 63 | 1008.7 |
| 20260902083304 | 56 | 53 | 1.0 | 1.0 | 0.00 | 0.00 | 0.00 | 63 | 1008.7 |
| 20260902082804 | 56 | 53 | 1.0 | 1.0 | 0.00 | 0.00 | 0.00 | 64 | 1008.7 |
| 20260902082309 | 56 | 53 | 1.0 | 1.0 | 0.00 | 0.00 | 0.00 | 63 | 1008.6 |
| 20260902081804 | 57 | 53 | 1.0 | 1.0 | 0.00 | 0.00 | 0.00 | 64 | 1008.8 |
| 20260902081304 | 57 | 53 | 1.0 | 1.0 | 0.00 | 0.00 | 0.00 | 64 | 1008.7 |
| 20260902080804 | 57 | 53 | 1.0 | 1.0 | 0.00 | 0.00 | 0.00 | 64 | 1008.8 |
| 20260902080304 | 57 | 53 | 1.0 | 1.0 | 0.00 | 0.00 | 0.00 | 64 | 1009.0 |
| 20260902075803 | 57 | 53 | 1.0 | 1.0 | 0.00 | 0.00 | 0.00 | 63 | 1008.8 |
| 20260902074804 | 57 | 53 | 1.0 | 1.0 | 0.00 | 0.00 | 0.00 | 63 | 1008.9 |
| 20260902074303 | 57 | 53 | 1.0 | 1.0 | 0.00 | 0.00 | 0.00 | 63 | 1008.7 |
| 20260902073804 | 57 | 53 | 1.0 | 1.0 | 0.00 | 0.00 | 0.00 | 63 | 1008.9 |
| 20260902073304 | 57 | 53 | 1.0 | 1.0 | 0.00 | 0.00 | 0.00 | 64 | 1009.0 |
| 20260902072804 | 57 | 53 | 1.0 | 1.0 | 0.00 | 0.00 | 0.00 | 64 | 1008.9 |
| 20260902072309 | 57 | 53 | 1.0 | 1.0 | 0.00 | 0.00 | 0.00 | 63 | 1009.0 |
| 20260902071803 | 57 | 53 | 1.0 | 1.0 | 0.00 | 0.00 | 0.00 | 63 | 1009.1 |
| 20260902071304 | 57 | 53 | 1.0 | 1.0 | 0.00 | 0.00 | 0.00 | 63 | 1009.2 |
| 20260902070803 | 57 | 53 | 1.0 | 1.0 | 0.00 | 0.00 | 0.00 | 62 | 1009.0 |
| 20260902070304 | 57 | 53 | 1.0 | 1.0 | 0.00 | 0.00 | 0.00 | 63 | 1009.1 |
| 20260902065306 | 58 | 53 | 1.0 | 1.0 | 0.00 | 0.00 | 0.00 | 62 | 1009.1 |
| 20260902064804 | 58 | 53 | 1.0 | 1.0 | 0.00 | 0.00 | 0.00 | 62 | 1009.2 |
| 20260902063803 | 58 | 53 | 1.0 | 1.0 | 0.00 | 0.00 | 0.00 | 62 | 1009.1 |
| 20260902063304 | 58 | 53 | 1.0 | 1.0 | 0.00 | 0.00 | 0.00 | 61 | 1009.3 |
| 20260902062803 | 58 | 53 | 1.0 | 1.0 | 0.00 | 0.00 | 0.00 | 61 | 1009.3 |
| 20260902062306 | 58 | 53 | 1.0 | 1.0 | 0.00 | 0.00 | 0.00 | 61 | 1009.4 |
| 20260902061804 | 59 | 53 | 1.0 | 1.0 | 0.00 | 0.00 | 0.00 | 61 | 1009.2 |
| 20260902061304 | 59 | 53 | 1.0 | 1.0 | 0.00 | 0.00 | 0.00 | 61 | 1009.3 |
| 20260902060803 | 59 | 53 | 1.0 | 1.0 | 0.00 | 0.00 | 0.00 | 60 | 1009.3 |
| 20260902060304 | 59 | 53 | 1.0 | 1.0 | 0.00 | 0.00 | 0.00 | 61 | 1009.3 |
| 20260902055804 | 59 | 53 | 1.0 | 1.0 | 0.00 | 0.00 | 0.00 | 60 | 1009.5 |
| 20260902055307 | 59 | 53 | 1.0 | 1.0 | 0.00 | 0.00 | 0.00 | 60 | 1009.3 |
| 20260902054804 | 59 | 53 | 1.0 | 1.0 | 0.00 | 0.00 | 0.00 | 59 | 1009.5 |
| 20260902054304 | 59 | 53 | 1.0 | 1.0 | 0.00 | 0.00 | 0.00 | 59 | 1009.3 |
| 20260902053803 | 59 | 53 | 1.0 | 1.0 | 0.00 | 0.00 | 0.00 | 58 | 1009.4 |
| 20260902053304 | 59 | 53 | 1.0 | 1.0 | 0.00 | 0.00 | 0.00 | 58 | 1009.5 |
| 20260902052804 | 60 | 53 | 1.0 | 1.0 | 0.00 | 0.00 | 0.00 | 58 | 1009.4 |
| 20260902051804 | 60 | 53 | 1.0 | 1.0 | 0.00 | 0.00 | 0.00 | 57 | 1009.5 |
| 20260902051304 | 60 | 53 | 1.0 | 1.0 | 0.00 | 0.00 | 0.00 | 57 | 1009.6 |
| 20260902050804 | 60 | 53 | 1.0 | 1.0 | 0.00 | 0.00 | 0.00 | 57 | 1009.5 |
| 20260902045803 | 60 | 53 | 1.0 | 1.0 | 0.00 | 0.00 | 0.00 | 56 | 1009.6 |